Regional Weather Roundup
Issued by NWS Pendleton, OR

Home | Current Version | Previous Version | Text Only | Print | Product List | Glossary On
Versions: 1 2 3 4 5 6 7 8 9 10 11 12 13 14 15 16 17 18 19 20 21 22 23 24 25 26 27 28 29 30 31 32 33 34 35 36 37 38 39 40 41 42 43 44 45 46 47 48 49 50
000
ASUS46 KPDT 240425
RWRPDT
PENDLETON REGIONAL WEATHER ROUNDUP
NATIONAL WEATHER SERVICE PENDLETON OREGON
900 PM PDT WED MAY 23 2018

NOTE: FAIR INDICATES FEW OR NO CLOUDS BELOW 12,000 FEET WITH NO
SIGNIFICANT WEATHER AND/OR OBSTRUCTIONS TO VISIBILITY.

# INDICATES UNOFFICIAL STATION AND DATA

WAZ520-240510-
EAST SLOPES OF WASHINGTON CASCADES

CITY            SKY/WX      TMP DP  RH  WIND    PRES   REMARKS
#BULLFROG       N/A         61  56  84  W1      N/A
#CLE ELUM HS    N/A         63  52  67  CALM    29.76R
#EASTON DOT     N/A         59  52  78  N1      N/A
#ELK HTS DOT    N/A         67  66  97  W1      N/A
#GLENWOOD       N/A         69  54  59  SW3     29.72R
#NELSON 3SW     N/A         55  53  93  CALM    29.91R
#NILE           N/A         58  54  87  CALM    29.13R
#TEANAWAY 4NE   N/A         61  55  81  S1      N/A
#TROUT LAKE 1NE N/A         67  54  63  CALM    29.74R
#TROUT LAKE 1E  N/A         68  56  65  CALM    29.84R
$$

WAZ521-240510-
SIMCOE HIGHLANDS

CITY            SKY/WX      TMP DP  RH  WIND    PRES   REMARKS
#BICKLETON HS   N/A         60  54  81  W6      29.54R
#SATUS PASS DOT N/A         67  41  39  CALM    N/A
#CENTERVILLE 1SWN/A         70  55  59  W9      29.69R
#GOLDENDALE 1NE N/A         73  31  21  CALM    N/A
#GOLDENDALE 4W  N/A         71  29  21  W15     29.84R
#GOODNOE HILLS  N/A         71  57  61  NW7     29.72R
#LYLE 6NE       N/A         70  55  59  W9      29.75R
#PITT 4SE       N/A         67  54  63  W14     29.75R
$$

WAZ026-240510-
KITTITAS VALLEY

CITY            SKY/WX      TMP DP  RH  WIND    PRES   REMARKS
ELLENSBURG AP   PTCLDY      68  52  57  W9      29.77R
#ELLENSBURG CWU N/A         69  52  55  W3      29.64R
#ELLENSBURG 3NE N/A         67  53  61  W5      27.85R
#ELLENSBURG 1E  N/A         70  52  53  NW1     29.75R
#KITTITAS 3S    N/A         65  53  65  W1      29.68R
#MANASTASH RDG  N/A         68  68  100 NW9     N/A
#ROCKY CYN DOT  N/A         67  49  52  NW9     N/A
#RYEGRASS DOT   N/A         65  46  50  CALM    N/A
#THORP 6N       N/A         80  55  42  CALM    29.59R
$$

WAZ027-240510-
YAKIMA VALLEY

CITY            SKY/WX      TMP DP  RH  WIND    PRES   REMARKS
SUNNYSIDE AP    PTCLDY      70  52  53  N3      29.73R
YAKIMA AIRPORT  PTCLDY      72  49  44  W8      29.75R
YAKIMA-VAGABOND PTCLDY      73  45  37  NW7     29.74R
#DONALD 2NE     N/A         75  14  10  SE7     28.61R
#GRANDVIEW      N/A         76  45  33  CALM    29.70R
#MABTON         N/A         76  52  43  S5      29.70S
#MOXEE 2E       N/A         37  N/A N/A SW12    29.79S WCI 29
#NACHES 2SW     N/A         70  50  49  W7      29.76R
#OUTLOOK DOT    N/A         75  51  43  CALM    29.69R
#PARKER DOT     N/A         76  46  34  S10     29.72R
#TERRACE HTS    N/A         74  48  40  NW1     29.65R
#TOPPENISH      N/A         78  50  38  CALM    29.62R
#I82 S UMTANUM RN/A         72  46  39  N13     N/A
#UNION GAP DOT  N/A         73  47  40  N5      29.76R
#W YAKIMA       N/A         72  50  46  CALM    29.69R
#WHITE SWAN 5E  N/A         77  52  42  CALM    29.69R
#WILEY CITY 3W  N/A         67  45  45  CALM    29.73R
#ZILLAH DOT     N/A         76  50  40  SW3     N/A
$$

WAZ028-240510-
LOWER COLUMBIA BASIN...WASHINGTON

CITY            SKY/WX      TMP DP  RH  WIND    PRES   REMARKS
PASCO           PTCLDY      79  52  39  W10     29.70R
PROSSER AWOS    N/A         75  50  41  N6      29.75R
RICHLAND AWOS   PTCLDY      77  53  43  W9      29.70R
#BASIN CITY 5SW N/A         75  50  41  CALM    29.66R
#BENTON CITY    N/A         73  54  51  CALM    29.58R
#CONNELL 5N     N/A         69  57  66  CALM    29.65R
#CONNELL 5NW    N/A         73  55  53  CALM    29.60R
#ELTOPIA 6NW    N/A         75  53  46  CALM    28.69R
#KAHLOTUS       N/A         78  54  43  NW13    29.65R
#KENNEWICK 3S   N/A         77  52  42  W2      29.66R
#PROSSER DOT    N/A         76  51  42  N8      29.72R
#SAGEMOOR 2W    N/A         74  54  50  W5      29.54R
#TOUCHET 2S     N/A         75  56  52  SW13    29.65R
#WEST PASCO     N/A         69  59  70  CALM    29.65R
$$

WAZ029-240510-
FOOTHILLS OF THE BLUES...WASHINGTON

CITY            SKY/WX      TMP DP  RH  WIND    PRES   REMARKS
WALLA WALLA AP  LGT RAIN    77  54  45  S17     29.74R
#CLYDE 6NW      N/A         71  57  61  S3      29.64R
#DELANEY DOT    N/A         74  56  53  N2      29.72R
#LOWDEN 2SE     N/A         76  56  50  W9      29.67R
#PLEASANT VIEW 1N/A         70  57  63  S2      29.68R
#PRESCOTT       N/A         71  60  68  CALM    29.64R
#WHITMAN COLLEGEN/A         76  55  48  S8      29.75R
#WAITSBURG 6SSE N/A         72  52  49  S7      29.53R
#WAITSBURG 8N   N/A          0  N/A N/A CALM    29.53R
#WALLA WALLA 5E N/A         72  55  55  S15     N/A
#WHITMAN MISSIONN/A         77  56  48  SW6     29.69R
$$

WAZ030-240510-
BLUE MOUNTAINS...WASHINGTON

CITY            SKY/WX      TMP DP  RH  WIND    PRES   REMARKS
#DIXIE 5SE      N/A         70  49  47  S5      29.75R
$$

ORZ009-041-WAZ024-240510-
COLUMBIA RIVER GORGE

CITY            SKY/WX      TMP DP  RH  WIND    PRES   REMARKS
HOOD RIVER AP   CLEAR       70  54  57  CALM    29.81R
THE DALLES AP   CLEAR       78  54  43  NW10    29.75R
#ARLINGTON AIRPON/A         73  55  53  S3      29.74R
#CELILO DOT     N/A         80  54  41  SW8     N/A
#LYLE           N/A         75  55  50  W12     29.75R
#MARYHILL       N/A         75  54  48  N12     29.62R
#MURDOCK        N/A         76  55  48  NW7     29.71R
#RUFUS DOT      N/A         80  57  45  W8      N/A
#SMITHVILLE     N/A         74  54  50  W9      29.73R

$$

ORZ510-240510-
NORTH CENTRAL OREGON

CITY            SKY/WX      TMP DP  RH  WIND    PRES   REMARKS
#ANTELOPE       N/A         65  55  70  CALM    29.61R
#CHENOWITH 1W   N/A         68  54  61  W24     N/A
#COW CYN RST AREN/A         65  52  63  S3      N/A
#DUFUR          N/A         70  58  66  CALM    29.70R
#DUFUR 9E       N/A         70  56  61  W2      29.76R
#GRASS VALLEY 1SN/A         65  53  65  S6      29.87R
#KENT DOT       N/A         66  47  50  S7      N/A
#SHANIKO 5WSW   N/A         65  50  58  S7      N/A
#SHANIKO 4NW    N/A         64  50  60  S8      29.89R
#TYGH VALLEY 2NEN/A         73  58  59  CALM    29.72R
#WAPANITIA AIRPON/A         69  57  66  SW6     29.75R
#WASCO DOT      N/A         73  58  59  W5      N/A
#WASCO 5NE      N/A         71  57  61  N3      29.72R
$$

ORZ511-240510-
CENTRAL OREGON

CITY            SKY/WX      TMP DP  RH  WIND    PRES   REMARKS
BEND AIRPORT    MOCLDY      61  52  72  SW9     29.94R
MADRAS AIRPORT  CLOUDY      63  52  67  S6      29.90R
PRINEVILLE AP   CLOUDY      61  54  78  CALM    29.94R
REDMOND AIRPORT CLOUDY      62  54  75  NW3     29.91R
#ASHWOOD SCHOOL N/A         68  50  53  CALM    29.85R
#BEND 1SW       N/A         57  54  90  CALM    N/A
#BEND-AWBREY    N/A         58  53  83  S2      29.80R
#BEND-KIM LN    N/A         60  55  84  W2      29.74R
#CULVER         N/A         61  53  75  SW3     29.58R
#CULVER 8W      N/A         62  50  65  CALM    29.90S
#LAKE BILLY CHINN/A         61  N/A N/A W8      29.94R
#POWELL BUTTE   N/A         63  49  60  SW3     29.91R
#PRINEVILLE     N/A         64  52  65  CALM    29.87R
#PRINEVILLE 3N  N/A         60  54  81  S1      29.81R
#WARM SPRINGS   N/A         70  53  55  CALM    29.64R

$$


ORZ509-240510-
EAST SLOPES OF OREGON CASCADES

CITY            SKY/WX      TMP DP  RH  WIND    PRES   REMARKS
SISTERS AWOS    N/A         57  54  90  CALM    29.91R
#CAMP SHERMAN   N/A         57  54  90  CALM    29.88F
#LA PINE 4NW    N/A         54  50  86  CALM    29.86R
#LAVA BUTTE DOT N/A         54  51  90  CALM    N/A
#SISTERS ODOT   N/A         58  55  90  CALM    N/A
#SISTERS 3N     N/A         56  52  86  CALM    29.94R
#SUNRIVER       N/A         55  53  93  CALM    29.82R
#TUMALO 3W      N/A         58  53  83  SW3     29.65R
#WANOGA BUTTE D N/A         51  N/A N/A CALM    N/A

$$

ORZ044-240510-
LOWER COLUMBIA BASIN...OREGON

CITY            SKY/WX      TMP DP  RH  WIND    PRES   REMARKS
HERMISTON       PTCLDY      76  54  46  SW9     29.73R
#BOARDMAN SCHOOLN/A         74  56  53  SW6     29.70R
#BOARDMAN 8SW   N/A         73  57  57  SW12    29.73R
#ECHO 8SW       N/A         73  54  51  SW12    29.75R
#I-84 EX 198 DOTN/A         74  51  44  NE13    N/A
#IONE SCHOOL    N/A         72  52  49  CALM    29.73R
#UMATILLA       N/A         77  50  39  CALM    29.63R
$$

ORZ507-240510-
NORTHERN FOOTHILLS OF THE BLUES

CITY            SKY/WX      TMP DP  RH  WIND    PRES   REMARKS
PENDLETON AIRPT PTCLDY      72  50  46  S9      29.77R
#ADAMS 3WNW     N/A         68  55  63  SW3     29.70R
#ATHENA         N/A         68  54  61  CALM    29.73R
#CAYUSE         N/A         71  55  57  SW9     29.70R
#HELIX SCHOOL   N/A         71  53  53  N9      29.71R
#HELIX 3N       N/A         68  53  59  SW8     29.81R
#HOLDMAN 6E     N/A         69  54  59  S7      29.51R
#M-F GROVE ELEM N/A         74  52  46  SW7     29.73R
#M-FREEWATER 5SEN/A         74  55  51  SW7     29.77R
#PENDLETON DNTN N/A         75  45  34  S5      N/A
#PDT AQUATIC CTRN/A         72  48  43  CALM    29.78R
#PDT SUNRIDGE   N/A         71  54  55  S1      29.78R
#PENDLETON 6SE  N/A         69  55  61  S2      29.68R
#PENDLETON 7NW  N/A         72  55  55  CALM    32.35S
#PILOT ROCK     N/A         69  52  55  CALM    29.82R
#TUTUILLA       N/A         67  53  61  SW1     29.82R
#UMAPINE 2E     N/A         76  57  52  SW7     29.69R

$$

ORZ508-240510-
SOUTHERN FOOTHILLS OF THE BLUES

CITY            SKY/WX      TMP DP  RH  WIND    PRES   REMARKS
#AJAX           N/A         67  49  52  CALM    30.00R
#FOSSIL SCHOOL  N/A         61  56  84  CALM    29.83R
#HEPPNER EOC    N/A         68  51  55  S6      29.65R
#HEPPNER 4NE    N/A         65  53  65  CALM    29.72R
#LEXINGTON 2SE  N/A         71  53  53  CALM    29.77R
#OLEX 4N        N/A         69  57  66  S7      29.76R
#RUGGS 5NE      N/A         64  52  65  S1      30.01R
#RUGGS 2SW      N/A         65  51  60  SW15    29.73R

$$

ORZ502-503-240510-
BLUE MOUNTAINS

CITY            SKY/WX      TMP DP  RH  WIND    PRES   REMARKS
MEACHAM         PTCLDY      64  48  56  W3      29.90R
#BATTLE MTN DOT N/A         60  46  60  S3      N/A
#GRANITE        N/A         51  46  83  CALM    29.59S
#HARDMAN 10S    N/A         54  51  90  CALM    29.89R
#LADD CYN SMT   N/A         63  51  65  S7      N/A
#LADD CREEK ODOTN/A         63  48  58  SW1     N/A
#N POWDER DOT   N/A         64  56  75  CALM    N/A
#PIKES PEAK     N/A         66  50  56  S28G36  27.99S
#SUMMERVILLE 5NWN/A         58  54  87  CALM    26.53R
#TOLLGATE       N/A         57  48  72  S5      29.98R
#TROY SCHOOL    N/A         64  57  78  CALM    29.58R
#UKIAH          N/A         62  52  70  CALM    29.69R
$$

ORZ505-240510-
JOHN DAY BASIN

CITY            SKY/WX      TMP DP  RH  WIND    PRES   REMARKS
JOHN DAY        PTCLDY      60  54  81  W7      29.94R
#ANTELOPE 9ESE  N/A         69  54  59  SW1     N/A
#MITCHELL 8NW   N/A         64  49  58  SW1     29.78R
#MONUMENT HS    N/A         66  54  65  CALM    29.83R
#MT. VERNON 5SE N/A         60  52  75  CALM    29.88R
#SPRAY SCHOOL   N/A         68  N/A N/A W1      N/A
$$

ORZ506-240510-
OCHOCO AND JOHN DAY HIGHLANDS

CITY            SKY/WX      TMP DP  RH  WIND    PRES   REMARKS
#HORSE RIDGE DO N/A         58  50  75  CALM    N/A
#IZEE 6NW       N/A         60  55  84  CALM    N/A
#KEYES SMT DOT  N/A         57  52  83  CALM    N/A
#PAULINA ODOT   N/A         63  48  58  SW13    N/A
#PINE MTN OBS   N/A         50  43  77  CALM    N/A
#PRAIRIE CITY   N/A         60  53  78  CALM    30.03R
#SENECA         N/A         61  N/A N/A S3      N/A
#SENECA 9NW     N/A         55  50  83  CALM    29.79R
$$

ORZ049-240510-
GRANDE RONDE VALLEY

CITY            SKY/WX      TMP DP  RH  WIND    PRES   REMARKS
LA GRANDE       PTCLDY      63  56  78  S6      29.84R
#COVE SCHOOL    N/A         64  54  70  CALM    29.87R
#COVE 6NW       N/A         67  54  63  CALM    29.72R
#ELGIN 3N       N/A         62  52  70  CALM    29.83R
#ELGIN 1E       N/A         68  52  57  CALM    N/A
#IMBLER SCHOOL  N/A         67  53  61  CALM    29.80R
#ISLAND CITY 4N N/A         65  53  65  CALM    29.85R
#LADD CYN DOT   N/A         67  57  70  SE7     N/A
#UNION 1S       N/A         67  52  59  E6      29.73R
$$

ORZ050-240510-
WALLOWA COUNTY

CITY            SKY/WX      TMP DP  RH  WIND    PRES   REMARKS
#ENTERPRISE HS  N/A         61  55  81  CALM    29.64R
#IMNAHA SCHOOL  N/A         63  55  75  CALM    29.82R
#IMNAHA 10S     N/A         60  54  81  SW5     29.84R
#JOSEPH         N/A         59  50  72  CALM    30.12R
#JOSEPH 3N      N/A         59  51  75  CALM    29.94R
#JOSEPH 3W      N/A         53  50  89  SW3     29.78R
#LOSTINE        N/A         57  53  86  CALM    29.56R
#LOSTINE 3SE    N/A         57  54  90  CALM    29.95R
#MT HOWARD 8000 N/A         47  38  71  W7      30.09R
#PROMISE 1S     N/A         57  53  86  CALM    29.83R
#WALLOWA LAKE   N/A         53  50  89  S1      29.94R
#WALLOWA SCHOOL N/A         61  55  81  CALM    29.83R



$$



USA.gov is the U.S. government's official web portal to all federal, state and local government web resources and services.